Location: �quirre
(50.4736°N, 2.2351°E)
Time: 06:45:57
(UTC+00:00)

CBERS-1 - Pass Details

Date: 07 August 2020
Orbit: 769 x 777 km, 98.6° (Epoch: 26 September)

Event Time Altitude Azimuth Distance (km) Brightness Sun altitude
Rises 01:58:31 0° 17° (NNE) 3,266 8.8 -18.1°
Reaches altitude 10° 02:00:53 10° 21° (NNE) 2,333 7.7 -17.9°
Maximum altitude 02:05:58 61° 102° (ESE) 877 4.3 -17.4°
Enters shadow 02:09:11 22° 176° (S) 1,623 5.2 -17.2°
